IGO5194 VECC-VABB

Flight info

Callsign IGO5194
Flight time 2h 21m
Altitude 36000
Route JJS2C JJS Q20 OPAKA EMRAK2A
Aircraft A21N/M-SDE3FGHIRWY/LB1

Departure

Time 2026-05-06 10:44
Airport Netaji Subhash Chandra Bose International Airport (VECC)

Arrival

Time 2026-05-06 13:05
Airport Chhatrapati Shivaji Maharaj International Airport (VABB)
Time Latitude Longitude Altitude Speed Heading
2026-05-06 10:17 22.64458 88.44094 24 ft 0 kts 274°
2026-05-06 10:29 22.64457 88.44106 24 ft 2 kts 274°
2026-05-06 10:29 22.64456 88.44123 24 ft 2 kts 273°
2026-05-06 10:29 22.64452 88.44140 24 ft 2 kts 303°
2026-05-06 10:30 22.64441 88.44153 24 ft 2 kts 327°
2026-05-06 10:30 22.64427 88.44160 24 ft 2 kts 351°
2026-05-06 10:30 22.64417 88.44160 23 ft 1 kts
2026-05-06 10:30 22.64434 88.44160 24 ft 4 kts
2026-05-06 10:31 22.64450 88.44162 24 ft 1 kts
2026-05-06 10:31 22.64452 88.44163 24 ft 0 kts
2026-05-06 10:34 22.64454 88.44163 24 ft 0 kts
2026-05-06 10:34 22.64457 88.44163 24 ft 1 kts
2026-05-06 10:34 22.64478 88.44165 25 ft 4 kts
2026-05-06 10:35 22.64521 88.44172 25 ft 8 kts
2026-05-06 10:35 22.64593 88.44179 25 ft 12 kts
2026-05-06 10:35 22.64694 88.44191 26 ft 15 kts
2026-05-06 10:35 22.64812 88.44205 28 ft 17 kts
2026-05-06 10:36 22.64951 88.44218 27 ft 21 kts
2026-05-06 10:36 22.65068 88.44264 30 ft 16 kts 51°
2026-05-06 10:36 22.65109 88.44379 27 ft 15 kts 67°
2026-05-06 10:36 22.65194 88.44425 28 ft 13 kts
2026-05-06 10:37 22.65287 88.44435 28 ft 12 kts
2026-05-06 10:37 22.65374 88.44446 28 ft 11 kts
2026-05-06 10:37 22.65459 88.44456 27 ft 12 kts
2026-05-06 10:37 22.65547 88.44467 26 ft 12 kts
2026-05-06 10:38 22.65630 88.44474 26 ft 11 kts
2026-05-06 10:38 22.65709 88.44483 25 ft 10 kts
2026-05-06 10:38 22.65783 88.44493 25 ft 10 kts
2026-05-06 10:38 22.65854 88.44508 25 ft 9 kts 20°
2026-05-06 10:39 22.65916 88.44547 24 ft 10 kts 32°
2026-05-06 10:39 22.65979 88.44590 23 ft 10 kts 32°
2026-05-06 10:39 22.66044 88.44626 23 ft 10 kts 19°
2026-05-06 10:39 22.66120 88.44645 22 ft 11 kts
2026-05-06 10:40 22.66200 88.44655 22 ft 11 kts
2026-05-06 10:40 22.66283 88.44665 22 ft 12 kts
2026-05-06 10:40 22.66367 88.44675 22 ft 11 kts
2026-05-06 10:40 22.66445 88.44685 24 ft 10 kts 10°
2026-05-06 10:41 22.66513 88.44713 24 ft 10 kts 27°
2026-05-06 10:41 22.66576 88.44765 23 ft 11 kts 47°
2026-05-06 10:41 22.66626 88.44830 24 ft 10 kts 51°
2026-05-06 10:41 22.66632 88.44891 24 ft 9 kts 155°
2026-05-06 10:42 22.66559 88.44885 23 ft 11 kts 196°
2026-05-06 10:42 22.66475 88.44875 22 ft 12 kts 182°
2026-05-06 10:42 22.66381 88.44866 22 ft 15 kts 186°
2026-05-06 10:42 22.66178 88.44844 22 ft 53 kts 185°
2026-05-06 10:43 22.65559 88.44777 22 ft 121 kts 185°
2026-05-06 10:43 22.64510 88.44668 25 ft 176 kts 186°
2026-05-06 10:43 22.63229 88.44515 483 ft 186 kts 182°
2026-05-06 10:44 22.60759 88.43790 1772 ft 193 kts 229°
2026-05-06 10:44 22.60249 88.42271 1932 ft 218 kts 265°
2026-05-06 10:44 22.60186 88.40527 2180 ft 235 kts 266°
2026-05-06 10:44 22.60071 88.38651 2513 ft 250 kts 262°
2026-05-06 10:45 22.59785 88.36732 2915 ft 263 kts 258°
2026-05-06 10:45 22.59420 88.34726 3402 ft 273 kts 257°
2026-05-06 10:45 22.59018 88.32702 4067 ft 275 kts 256°
2026-05-06 10:45 22.58610 88.30652 4771 ft 276 kts 257°
2026-05-06 10:46 22.58208 88.28590 5457 ft 279 kts 257°
2026-05-06 10:46 22.57831 88.26492 6143 ft 281 kts 261°
2026-05-06 10:46 22.57658 88.24363 6822 ft 284 kts 268°
2026-05-06 10:46 22.57693 88.22201 7506 ft 286 kts 271°
2026-05-06 10:47 22.57782 88.20013 8185 ft 289 kts 272°
2026-05-06 10:47 22.57877 88.17829 8850 ft 291 kts 272°
2026-05-06 10:47 22.57970 88.15638 9498 ft 293 kts 271°
2026-05-06 10:47 22.58062 88.13389 10115 ft 297 kts 271°
2026-05-06 10:48 22.58154 88.11058 10429 ft 312 kts 271°
2026-05-06 10:48 22.58248 88.08632 10752 ft 325 kts 272°
2026-05-06 10:48 22.58348 88.06060 11334 ft 329 kts 272°
2026-05-06 10:48 22.58449 88.03413 11999 ft 331 kts 272°
2026-05-06 10:49 22.58551 88.00750 12630 ft 334 kts 272°
2026-05-06 10:49 22.58653 87.98045 13248 ft 337 kts 272°
2026-05-06 10:49 22.58756 87.95316 13857 ft 339 kts 272°
2026-05-06 10:49 22.58859 87.92561 14456 ft 342 kts 272°
2026-05-06 10:50 22.58961 87.89803 15041 ft 345 kts 272°
2026-05-06 10:50 22.59063 87.87048 15608 ft 348 kts 272°
2026-05-06 10:50 22.59165 87.84264 16166 ft 351 kts 272°
2026-05-06 10:50 22.59269 87.81434 16715 ft 353 kts 272°
2026-05-06 10:51 22.59371 87.78642 17238 ft 356 kts 272°
2026-05-06 10:51 22.59472 87.75854 17744 ft 358 kts 272°
2026-05-06 10:51 22.59570 87.73119 18224 ft 361 kts 272°
2026-05-06 10:51 22.59669 87.70374 18691 ft 363 kts 272°
2026-05-06 10:52 22.59767 87.67620 19146 ft 366 kts 272°
2026-05-06 10:52 22.59866 87.64836 19593 ft 368 kts 272°
2026-05-06 10:52 22.59969 87.61925 20049 ft 370 kts 272°
2026-05-06 10:52 22.60072 87.59007 20494 ft 373 kts 272°
2026-05-06 10:53 22.60171 87.56187 20911 ft 375 kts 272°
2026-05-06 10:53 22.60270 87.53323 21321 ft 377 kts 272°
2026-05-06 10:53 22.60370 87.50441 21723 ft 379 kts 272°
2026-05-06 10:53 22.60469 87.47572 22113 ft 381 kts 272°
2026-05-06 10:54 22.60568 87.44660 22498 ft 384 kts 272°
2026-05-06 10:54 22.60671 87.41645 22885 ft 386 kts 272°
2026-05-06 10:54 22.60772 87.38683 23255 ft 388 kts 272°
2026-05-06 10:54 22.60875 87.35609 23628 ft 390 kts 272°
2026-05-06 10:55 22.60980 87.32478 23998 ft 392 kts 271°
2026-05-06 10:55 22.61079 87.29511 24334 ft 394 kts 271°
2026-05-06 10:55 22.61184 87.26372 24664 ft 397 kts 271°
2026-05-06 10:55 22.61289 87.23185 24746 ft 398 kts 271°
2026-05-06 10:56 22.61394 87.19986 24752 ft 398 kts 271°
2026-05-06 10:56 22.61498 87.16791 24756 ft 398 kts 271°
2026-05-06 10:56 22.61600 87.13644 24760 ft 398 kts 271°
2026-05-06 10:56 22.61703 87.10439 24764 ft 398 kts 271°
2026-05-06 10:57 22.61805 87.07236 24767 ft 398 kts 271°
2026-05-06 10:57 22.61906 87.04061 24770 ft 398 kts 271°
2026-05-06 10:57 22.62008 87.00854 24771 ft 397 kts 271°
2026-05-06 10:57 22.62104 86.97805 24772 ft 397 kts 271°
2026-05-06 10:58 22.62197 86.94803 24773 ft 397 kts 271°
2026-05-06 10:58 22.62289 86.91844 24773 ft 396 kts 271°
2026-05-06 10:58 22.62382 86.88819 24773 ft 396 kts 271°
2026-05-06 10:58 22.62473 86.85845 24773 ft 396 kts 271°
2026-05-06 10:59 22.62564 86.82812 24773 ft 396 kts 271°
2026-05-06 10:59 22.62655 86.79823 24773 ft 396 kts 271°
2026-05-06 10:59 22.62744 86.76818 24773 ft 396 kts 271°
2026-05-06 10:59 22.62835 86.73781 24773 ft 396 kts 271°
2026-05-06 11:00 22.62923 86.70812 24773 ft 396 kts 271°
2026-05-06 11:00 22.63040 86.66792 24773 ft 396 kts 271°
2026-05-06 11:00 22.63098 86.64795 24773 ft 396 kts 271°
2026-05-06 11:00 22.63186 86.61770 24773 ft 396 kts 271°
2026-05-06 11:01 22.63272 86.58792 24773 ft 396 kts 271°
2026-05-06 11:01 22.63358 86.55772 24773 ft 396 kts 271°
2026-05-06 11:01 22.63445 86.52770 24772 ft 396 kts 272°
2026-05-06 11:01 22.63802 86.49764 24770 ft 397 kts 282°
2026-05-06 11:02 22.64687 86.46836 24792 ft 400 kts 293°
2026-05-06 11:02 22.66050 86.44097 25080 ft 403 kts 300°
2026-05-06 11:02 22.67576 86.41424 25493 ft 403 kts 301°
2026-05-06 11:02 22.69135 86.38733 25839 ft 405 kts 301°
2026-05-06 11:03 22.70697 86.36026 26158 ft 407 kts 301°
2026-05-06 11:03 22.72295 86.33240 26481 ft 408 kts 301°
2026-05-06 11:03 22.73876 86.30472 26796 ft 410 kts 301°
2026-05-06 11:03 22.75472 86.27669 27105 ft 412 kts 300°
2026-05-06 11:04 22.77049 86.24896 27404 ft 413 kts 300°
2026-05-06 11:04 22.78668 86.22049 27707 ft 415 kts 300°
2026-05-06 11:04 22.80004 86.19031 27959 ft 415 kts 285°
2026-05-06 11:04 22.80489 86.15723 28227 ft 415 kts 269°
2026-05-06 11:05 22.80075 86.12398 28512 ft 416 kts 255°
2026-05-06 11:05 22.79295 86.09351 28803 ft 416 kts 253°
2026-05-06 11:05 22.78417 86.06117 29068 ft 419 kts 253°
2026-05-06 11:05 22.77539 86.02882 29333 ft 420 kts 253°
2026-05-06 11:06 22.76672 85.99660 29599 ft 422 kts 253°
2026-05-06 11:06 22.75802 85.96409 29862 ft 423 kts 254°
2026-05-06 11:06 22.74946 85.93192 30118 ft 425 kts 254°
2026-05-06 11:06 22.74087 85.89961 30368 ft 426 kts 254°
2026-05-06 11:07 22.73223 85.86703 30612 ft 428 kts 254°
2026-05-06 11:07 22.72385 85.83545 30845 ft 429 kts 254°
2026-05-06 11:07 22.71561 85.80440 31069 ft 431 kts 254°
2026-05-06 11:07 22.70716 85.77258 31297 ft 432 kts 254°
2026-05-06 11:08 22.69869 85.74071 31584 ft 431 kts 254°
2026-05-06 11:08 22.69009 85.70838 31910 ft 430 kts 254°
2026-05-06 11:08 22.68170 85.67685 32219 ft 429 kts 254°
2026-05-06 11:08 22.67283 85.64356 32530 ft 428 kts 254°
2026-05-06 11:09 22.66395 85.61025 32832 ft 427 kts 254°
2026-05-06 11:09 22.65509 85.57704 33128 ft 426 kts 254°
2026-05-06 11:09 22.64636 85.54436 33415 ft 426 kts 254°
2026-05-06 11:09 22.63763 85.51172 33698 ft 425 kts 254°
2026-05-06 11:10 22.62905 85.47965 33969 ft 424 kts 254°
2026-05-06 11:10 22.62082 85.44890 34203 ft 424 kts 254°
2026-05-06 11:10 22.61252 85.41791 34405 ft 424 kts 254°
2026-05-06 11:10 22.60418 85.38681 34600 ft 425 kts 254°
2026-05-06 11:11 22.59582 85.35566 34791 ft 425 kts 254°
2026-05-06 11:11 22.58747 85.32458 34977 ft 426 kts 254°
2026-05-06 11:11 22.57911 85.29349 35158 ft 427 kts 254°
2026-05-06 11:11 22.57064 85.26202 35333 ft 427 kts 254°
2026-05-06 11:12 22.56226 85.23090 35499 ft 428 kts 254°
2026-05-06 11:12 22.55387 85.19977 35659 ft 428 kts 254°
2026-05-06 11:12 22.54543 85.16850 35791 ft 429 kts 254°
2026-05-06 11:13 22.52848 85.10580 35799 ft 430 kts 254°
2026-05-06 11:13 22.51044 85.03918 35801 ft 429 kts 254°
2026-05-06 11:14 22.49276 84.97398 35801 ft 429 kts 255°
2026-05-06 11:14 22.47486 84.90806 35794 ft 429 kts 255°
2026-05-06 11:15 22.45713 84.84283 35783 ft 429 kts 255°
2026-05-06 11:15 22.43944 84.77789 35777 ft 429 kts 255°
2026-05-06 11:16 22.42194 84.71377 35775 ft 429 kts 255°
2026-05-06 11:16 22.40414 84.64867 35775 ft 429 kts 255°
2026-05-06 11:17 22.38613 84.58292 35775 ft 429 kts 255°
2026-05-06 11:17 22.36898 84.52042 35775 ft 430 kts 255°
2026-05-06 11:18 22.35180 84.45789 35775 ft 430 kts 255°
2026-05-06 11:18 22.33411 84.39363 35775 ft 430 kts 255°
2026-05-06 11:19 22.31608 84.32825 35775 ft 430 kts 254°
2026-05-06 11:19 22.29839 84.26424 35775 ft 430 kts 254°
2026-05-06 11:20 22.28048 84.19949 35775 ft 430 kts 254°
2026-05-06 11:20 22.26251 84.13467 35775 ft 430 kts 254°
2026-05-06 11:21 22.24463 84.07027 35775 ft 430 kts 254°
2026-05-06 11:21 22.22706 84.00710 35775 ft 431 kts 254°
2026-05-06 11:22 22.20941 83.94371 35775 ft 431 kts 254°
2026-05-06 11:22 22.19191 83.88097 35775 ft 431 kts 254°
2026-05-06 11:23 22.17357 83.81538 35775 ft 431 kts 254°
2026-05-06 11:23 22.15515 83.74958 35775 ft 431 kts 254°
2026-05-06 11:24 22.13685 83.68433 35775 ft 431 kts 254°
2026-05-06 11:24 22.11883 83.62018 35775 ft 431 kts 254°
2026-05-06 11:25 22.10093 83.55656 35775 ft 431 kts 254°
2026-05-06 11:25 22.08299 83.49289 35775 ft 432 kts 254°
2026-05-06 11:26 22.06529 83.42834 35776 ft 434 kts 255°
2026-05-06 11:26 22.04811 83.36299 35776 ft 442 kts 255°
2026-05-06 11:27 22.03027 83.29542 35776 ft 449 kts 255°
2026-05-06 11:27 22.01227 83.22761 35776 ft 454 kts 255°
2026-05-06 11:28 21.99417 83.15955 35776 ft 458 kts 255°
2026-05-06 11:28 21.97587 83.09092 35775 ft 460 kts 255°
2026-05-06 11:29 21.95765 83.02273 35775 ft 460 kts 255°
2026-05-06 11:29 21.93944 82.95467 35775 ft 459 kts 255°
2026-05-06 11:30 21.92153 82.88789 35775 ft 457 kts 255°
2026-05-06 11:30 21.90392 82.82231 35775 ft 456 kts 255°
2026-05-06 11:31 21.88620 82.75643 35775 ft 455 kts 255°
2026-05-06 11:31 21.86853 82.69087 35774 ft 455 kts 255°
2026-05-06 11:32 21.85072 82.62487 35774 ft 455 kts 255°
2026-05-06 11:32 21.83302 82.55944 35774 ft 455 kts 255°
2026-05-06 11:33 21.81523 82.49375 35774 ft 455 kts 255°
2026-05-06 11:33 21.79738 82.42795 35774 ft 455 kts 255°
2026-05-06 11:34 21.77951 82.36221 35774 ft 455 kts 255°
2026-05-06 11:34 21.76173 82.29689 35775 ft 455 kts 255°
2026-05-06 11:35 21.74376 82.23099 35775 ft 455 kts 255°
2026-05-06 11:35 21.72589 82.16556 35775 ft 455 kts 255°
2026-05-06 11:36 21.70784 82.09961 35775 ft 455 kts 255°
2026-05-06 11:36 21.68991 82.03423 35775 ft 455 kts 255°
2026-05-06 11:37 21.67193 81.96876 35775 ft 455 kts 255°
2026-05-06 11:37 21.65389 81.90332 35775 ft 455 kts 255°
2026-05-06 11:38 21.63577 81.83772 35775 ft 455 kts 255°
2026-05-06 11:38 21.61768 81.77235 35775 ft 455 kts 255°
2026-05-06 11:39 21.59958 81.70701 35775 ft 455 kts 255°
2026-05-06 11:39 21.58141 81.64159 35775 ft 455 kts 255°
2026-05-06 11:40 21.56318 81.57601 35775 ft 455 kts 255°
2026-05-06 11:40 21.54500 81.51073 35775 ft 455 kts 255°
2026-05-06 11:41 21.52677 81.44537 35775 ft 455 kts 255°
2026-05-06 11:41 21.50857 81.38023 35775 ft 455 kts 255°
2026-05-06 11:42 21.49011 81.31430 35775 ft 455 kts 254°
2026-05-06 11:42 21.47158 81.24820 35775 ft 455 kts 254°
2026-05-06 11:43 21.45262 81.18065 35775 ft 455 kts 254°
2026-05-06 11:43 21.43364 81.11317 35775 ft 455 kts 254°
2026-05-06 11:44 21.40535 81.01276 35775 ft 454 kts 254°
2026-05-06 11:44 21.38656 80.94623 35775 ft 454 kts 254°
2026-05-06 11:45 21.36777 80.87981 35775 ft 454 kts 253°
2026-05-06 11:45 21.34869 80.81255 35775 ft 454 kts 253°
2026-05-06 11:46 21.32974 80.74583 35775 ft 454 kts 253°
2026-05-06 11:46 21.31069 80.67883 35775 ft 454 kts 253°
2026-05-06 11:47 21.29174 80.61229 35775 ft 454 kts 253°
2026-05-06 11:47 21.27258 80.54517 35775 ft 454 kts 253°
2026-05-06 11:48 21.25353 80.47849 35775 ft 454 kts 253°
2026-05-06 11:48 21.23472 80.41279 35775 ft 454 kts 253°
2026-05-06 11:49 21.21612 80.34796 35775 ft 454 kts 253°
2026-05-06 11:49 21.19742 80.28287 35775 ft 454 kts 253°
2026-05-06 11:50 21.17868 80.21774 35775 ft 454 kts 253°
2026-05-06 11:50 21.15987 80.15246 35775 ft 454 kts 253°
2026-05-06 11:51 21.14118 80.08771 35775 ft 454 kts 253°
2026-05-06 11:51 21.12239 80.02268 35775 ft 454 kts 253°
2026-05-06 11:52 21.10360 79.95776 35774 ft 455 kts 253°
2026-05-06 11:52 21.08465 79.89238 35774 ft 456 kts 253°
2026-05-06 11:53 21.06562 79.82684 35774 ft 458 kts 253°
2026-05-06 11:53 21.04660 79.76144 35774 ft 459 kts 253°
2026-05-06 11:54 21.02742 79.69563 35774 ft 461 kts 252°
2026-05-06 11:54 21.00812 79.62952 35774 ft 463 kts 252°
2026-05-06 11:55 20.98875 79.56324 35774 ft 465 kts 252°
2026-05-06 11:55 20.96927 79.49670 35774 ft 466 kts 252°
2026-05-06 11:56 20.94973 79.43008 35775 ft 468 kts 252°
2026-05-06 11:56 20.93007 79.36314 35775 ft 468 kts 252°
2026-05-06 11:57 20.91037 79.29620 35775 ft 468 kts 252°
2026-05-06 11:57 20.89151 79.22934 35775 ft 468 kts 254°
2026-05-06 11:58 20.87366 79.16206 35775 ft 468 kts 254°
2026-05-06 11:58 20.85563 79.09439 35775 ft 468 kts 254°
2026-05-06 11:59 20.83757 79.02707 35775 ft 468 kts 254°
2026-05-06 11:59 20.81907 78.95839 35775 ft 468 kts 254°
2026-05-06 12:00 20.80047 78.88941 35775 ft 468 kts 254°
2026-05-06 12:00 20.78189 78.82065 35775 ft 468 kts 254°
2026-05-06 12:01 20.76336 78.75222 35775 ft 468 kts 254°
2026-05-06 12:01 20.74493 78.68430 35775 ft 468 kts 254°
2026-05-06 12:02 20.72639 78.61607 35775 ft 468 kts 254°
2026-05-06 12:02 20.70810 78.54887 35775 ft 468 kts 254°
2026-05-06 12:03 20.68978 78.48170 35775 ft 468 kts 254°
2026-05-06 12:03 20.67147 78.41467 35775 ft 468 kts 254°
2026-05-06 12:04 20.65313 78.34766 35775 ft 468 kts 254°
2026-05-06 12:04 20.63464 78.28021 35775 ft 468 kts 254°
2026-05-06 12:05 20.61620 78.21300 35775 ft 468 kts 254°
2026-05-06 12:05 20.59774 78.14590 35775 ft 468 kts 254°
2026-05-06 12:06 20.57924 78.07873 35775 ft 468 kts 254°
2026-05-06 12:06 20.56070 78.01143 35775 ft 468 kts 254°
2026-05-06 12:07 20.54264 77.94456 35775 ft 468 kts 254°
2026-05-06 12:07 20.52448 77.87740 35775 ft 468 kts 254°
2026-05-06 12:08 20.50656 77.81012 35775 ft 468 kts 255°
2026-05-06 12:08 20.48876 77.74295 35775 ft 468 kts 255°
2026-05-06 12:09 20.47088 77.67574 35775 ft 468 kts 255°
2026-05-06 12:09 20.45289 77.60827 35775 ft 468 kts 255°
2026-05-06 12:10 20.43499 77.54125 35775 ft 468 kts 255°
2026-05-06 12:10 20.41701 77.47406 35775 ft 468 kts 255°
2026-05-06 12:11 20.39905 77.40707 35775 ft 468 kts 255°
2026-05-06 12:11 20.38100 77.33985 35775 ft 468 kts 254°
2026-05-06 12:12 20.36301 77.27298 35775 ft 468 kts 254°
2026-05-06 12:12 20.34481 77.20544 35776 ft 468 kts 254°
2026-05-06 12:13 20.32677 77.13856 35784 ft 468 kts 254°
2026-05-06 12:13 20.30863 77.07147 35796 ft 468 kts 254°
2026-05-06 12:14 20.29041 77.00417 35809 ft 468 kts 254°
2026-05-06 12:14 20.27228 76.93729 35819 ft 467 kts 254°
2026-05-06 12:15 20.25415 76.87051 35825 ft 465 kts 254°
2026-05-06 12:15 20.23606 76.80403 35821 ft 464 kts 254°
2026-05-06 12:16 20.21796 76.73762 35811 ft 464 kts 254°
2026-05-06 12:16 20.19987 76.67139 35806 ft 464 kts 254°
2026-05-06 12:17 20.18173 76.60501 35803 ft 464 kts 254°
2026-05-06 12:17 20.16356 76.53867 35802 ft 464 kts 254°
2026-05-06 12:18 20.14538 76.47238 35802 ft 464 kts 254°
2026-05-06 12:18 20.12711 76.40591 35802 ft 464 kts 254°
2026-05-06 12:19 20.10881 76.33939 35802 ft 464 kts 253°
2026-05-06 12:19 20.09062 76.27339 35801 ft 464 kts 253°
2026-05-06 12:20 20.07231 76.20709 35801 ft 464 kts 253°
2026-05-06 12:20 20.05379 76.14011 35801 ft 464 kts 253°
2026-05-06 12:21 20.03494 76.07204 35801 ft 464 kts 253°
2026-05-06 12:21 20.01586 76.00325 35801 ft 464 kts 253°
2026-05-06 12:22 19.99727 75.93623 35801 ft 464 kts 253°
2026-05-06 12:22 19.97832 75.86803 35801 ft 464 kts 253°
2026-05-06 12:23 19.95926 75.79953 35801 ft 464 kts 253°
2026-05-06 12:23 19.94051 75.73228 35801 ft 464 kts 253°
2026-05-06 12:24 19.92199 75.66595 35802 ft 464 kts 253°
2026-05-06 12:24 19.90294 75.59785 35802 ft 464 kts 253°
2026-05-06 12:25 19.88387 75.52979 35801 ft 464 kts 253°
2026-05-06 12:25 19.86528 75.46358 35801 ft 464 kts 253°
2026-05-06 12:26 19.84677 75.39773 35801 ft 464 kts 253°
2026-05-06 12:26 19.82829 75.33210 35801 ft 464 kts 253°
2026-05-06 12:27 19.80965 75.26596 35801 ft 464 kts 253°
2026-05-06 12:27 19.79208 75.20376 35801 ft 464 kts 253°
2026-05-06 12:28 19.77344 75.13784 35801 ft 464 kts 253°
2026-05-06 12:28 19.75477 75.07185 35801 ft 464 kts 253°
2026-05-06 12:29 19.73620 75.00633 35801 ft 463 kts 253°
2026-05-06 12:29 19.71747 74.94037 35801 ft 464 kts 252°
2026-05-06 12:30 19.69867 74.87430 35801 ft 465 kts 252°
2026-05-06 12:30 19.67925 74.80621 35608 ft 460 kts 252°
2026-05-06 12:31 19.66975 74.77293 35039 ft 458 kts 252°
2026-05-06 12:31 19.66033 74.73996 34208 ft 459 kts 252°
2026-05-06 12:31 19.65071 74.70629 33290 ft 463 kts 252°
2026-05-06 12:31 19.64093 74.67209 32329 ft 466 kts 252°
2026-05-06 12:32 19.63117 74.63799 31346 ft 470 kts 252°
2026-05-06 12:32 19.62135 74.60371 30339 ft 474 kts 252°
2026-05-06 12:32 19.61144 74.56921 29297 ft 477 kts 252°
2026-05-06 12:32 19.60133 74.53361 28199 ft 482 kts 253°
2026-05-06 12:33 19.59137 74.49719 27059 ft 486 kts 253°
2026-05-06 12:33 19.58162 74.46105 25890 ft 490 kts 253°
2026-05-06 12:33 19.57138 74.42313 24629 ft 494 kts 253°
2026-05-06 12:33 19.56131 74.38593 23530 ft 494 kts 253°
2026-05-06 12:34 19.55123 74.34877 22933 ft 495 kts 253°
2026-05-06 12:34 19.54115 74.31173 22344 ft 493 kts 253°
2026-05-06 12:34 19.53094 74.27425 21743 ft 489 kts 253°
2026-05-06 12:34 19.52076 74.23690 21139 ft 485 kts 253°
2026-05-06 12:35 19.51034 74.19875 20517 ft 482 kts 253°
2026-05-06 12:35 19.50029 74.16197 19918 ft 478 kts 253°
2026-05-06 12:35 19.49022 74.12518 19314 ft 474 kts 253°
2026-05-06 12:35 19.48011 74.08827 18705 ft 471 kts 253°
2026-05-06 12:36 19.47024 74.05225 18110 ft 467 kts 253°
2026-05-06 12:36 19.46041 74.01639 17513 ft 463 kts 253°
2026-05-06 12:36 19.45056 73.98052 16914 ft 460 kts 253°
2026-05-06 12:36 19.44084 73.94514 16320 ft 456 kts 253°
2026-05-06 12:37 19.43098 73.90929 15888 ft 452 kts 253°
2026-05-06 12:37 19.42141 73.87464 15828 ft 453 kts 252°
2026-05-06 12:37 19.41063 73.84056 15828 ft 453 kts 251°
2026-05-06 12:37 19.39920 73.80612 15828 ft 453 kts 250°
2026-05-06 12:38 19.38753 73.77135 15826 ft 453 kts 250°
2026-05-06 12:38 19.37643 73.73826 15483 ft 453 kts 250°
2026-05-06 12:38 19.36537 73.70522 14815 ft 445 kts 250°
2026-05-06 12:38 19.35406 73.67140 14198 ft 442 kts 250°
2026-05-06 12:39 19.34269 73.63737 13601 ft 438 kts 250°
2026-05-06 12:39 19.33180 73.60479 13037 ft 434 kts 250°
2026-05-06 12:39 19.32095 73.57230 12469 ft 431 kts 250°
2026-05-06 12:39 19.31000 73.53957 11883 ft 421 kts 250°
2026-05-06 12:40 19.29931 73.50764 11296 ft 406 kts 250°
2026-05-06 12:40 19.28929 73.47772 10792 ft 392 kts 251°
2026-05-06 12:40 19.27953 73.44859 10277 ft 379 kts 251°
2026-05-06 12:40 19.27001 73.42019 9771 ft 368 kts 251°
2026-05-06 12:41 19.26090 73.39305 9287 ft 353 kts 251°
2026-05-06 12:41 19.25235 73.36758 8833 ft 340 kts 251°
2026-05-06 12:41 19.24417 73.34323 8397 ft 327 kts 251°
2026-05-06 12:41 19.23625 73.31966 7978 ft 315 kts 251°
2026-05-06 12:42 19.22886 73.29768 7587 ft 305 kts 251°
2026-05-06 12:42 19.22164 73.27620 7203 ft 297 kts 251°
2026-05-06 12:42 19.21451 73.25500 6828 ft 294 kts 251°
2026-05-06 12:42 19.20737 73.23378 6454 ft 291 kts 251°
2026-05-06 12:43 19.20015 73.21235 6078 ft 283 kts 251°
2026-05-06 12:43 19.19349 73.19260 5897 ft 270 kts 252°
2026-05-06 12:43 19.18706 73.17350 5872 ft 271 kts 252°
2026-05-06 12:43 19.18064 73.15448 5813 ft 271 kts 250°
2026-05-06 12:44 19.17064 73.13668 5396 ft 276 kts 225°
2026-05-06 12:44 19.15346 73.12557 4964 ft 277 kts 196°
2026-05-06 12:44 19.13322 73.12387 4640 ft 270 kts 171°
2026-05-06 12:44 19.11388 73.12671 4253 ft 267 kts 181°
2026-05-06 12:45 19.09645 73.12131 3816 ft 261 kts 218°
2026-05-06 12:45 19.08588 73.10648 3508 ft 246 kts 257°
2026-05-06 12:45 19.08907 73.07323 3098 ft 217 kts 282°
2026-05-06 12:46 19.09077 73.05707 2877 ft 217 kts 276°
2026-05-06 12:46 19.09123 73.04082 2878 ft 220 kts 273°
2026-05-06 12:46 19.09111 73.02494 2811 ft 209 kts 272°
2026-05-06 12:46 19.09082 73.00980 2522 ft 196 kts 272°
2026-05-06 12:47 19.09053 72.99564 2234 ft 181 kts 272°
2026-05-06 12:47 19.09032 72.98220 2023 ft 173 kts 272°
2026-05-06 12:47 19.09012 72.96977 1754 ft 156 kts 273°
2026-05-06 12:47 19.08994 72.95853 1519 ft 142 kts 273°
2026-05-06 12:48 19.08980 72.94791 1340 ft 141 kts 273°
2026-05-06 12:48 19.08966 72.93732 1166 ft 140 kts 273°
2026-05-06 12:48 19.08951 72.92664 983 ft 139 kts 273°
2026-05-06 12:48 19.08936 72.91622 799 ft 139 kts 273°
2026-05-06 12:49 19.08921 72.90585 607 ft 138 kts 272°
2026-05-06 12:49 19.08906 72.89546 401 ft 137 kts 272°
2026-05-06 12:49 19.08892 72.88509 192 ft 136 kts 272°
2026-05-06 12:49 19.08877 72.87476 46 ft 136 kts 272°
2026-05-06 12:50 19.08857 72.86423 106 ft 151 kts 270°
2026-05-06 12:50 19.08780 72.85229 595 ft 169 kts 269°
2026-05-06 12:50 19.08702 72.83919 1117 ft 183 kts 269°
2026-05-06 12:50 19.08687 72.82534 1703 ft 188 kts 275°
2026-05-06 12:51 19.08726 72.81117 2235 ft 196 kts 273°
2026-05-06 12:51 19.08725 72.79601 2583 ft 214 kts 269°
2026-05-06 12:51 19.08256 72.77997 2805 ft 236 kts 238°
2026-05-06 12:51 19.06990 72.76800 2820 ft 244 kts 205°
2026-05-06 12:52 19.05308 72.76386 2882 ft 247 kts 186°
2026-05-06 12:52 19.03580 72.76311 2893 ft 247 kts 180°
2026-05-06 12:52 19.01846 72.76723 2873 ft 248 kts 150°
2026-05-06 12:52 19.00579 72.77987 2884 ft 247 kts 118°
2026-05-06 12:53 19.00107 72.79806 2888 ft 243 kts 85°
2026-05-06 12:53 19.00630 72.81595 2890 ft 238 kts 52°
2026-05-06 12:53 19.01797 72.82877 2908 ft 236 kts 38°
2026-05-06 12:53 19.03135 72.84006 2900 ft 235 kts 35°
2026-05-06 12:54 19.04533 72.85131 2896 ft 235 kts 35°
2026-05-06 12:54 19.05943 72.86257 2895 ft 235 kts 35°
2026-05-06 12:54 19.07321 72.87357 2894 ft 235 kts 34°
2026-05-06 12:54 19.08676 72.88441 2893 ft 235 kts 34°
2026-05-06 12:55 19.09997 72.89498 2893 ft 235 kts 34°
2026-05-06 12:55 19.11372 72.90601 2893 ft 234 kts 34°
2026-05-06 12:55 19.12725 72.91687 2893 ft 234 kts 34°
2026-05-06 12:55 19.14136 72.92822 2893 ft 234 kts 34°
2026-05-06 12:56 19.15509 72.93998 2886 ft 236 kts 46°
2026-05-06 12:56 19.16297 72.95651 2885 ft 242 kts 78°
2026-05-06 12:56 19.16411 72.97537 2896 ft 244 kts 88°
2026-05-06 12:56 19.16365 72.99352 2895 ft 245 kts 90°
2026-05-06 12:57 19.16052 73.01128 2881 ft 248 kts 113°
2026-05-06 12:57 19.15277 73.02833 2887 ft 248 kts 106°
2026-05-06 12:57 19.15115 73.04778 2891 ft 243 kts 81°
2026-05-06 12:57 19.15403 73.06647 2894 ft 242 kts 76°
2026-05-06 12:58 19.15770 73.08509 2894 ft 242 kts 75°
2026-05-06 12:58 19.16135 73.10293 2893 ft 241 kts 75°
2026-05-06 12:58 19.16402 73.12138 2877 ft 244 kts 92°
2026-05-06 12:58 19.15787 73.13806 2867 ft 250 kts 131°
2026-05-06 12:59 19.14321 73.14751 2973 ft 244 kts 166°
2026-05-06 12:59 19.12607 73.14750 2961 ft 241 kts 196°
2026-05-06 12:59 19.11112 73.13838 2916 ft 236 kts 227°
2026-05-06 12:59 19.10178 73.12318 2908 ft 223 kts 246°
2026-05-06 13:00 19.09532 73.10802 2870 ft 200 kts 255°
2026-05-06 13:00 19.09242 73.09368 2858 ft 175 kts 267°
2026-05-06 13:00 19.09162 73.08051 2871 ft 168 kts 272°
2026-05-06 13:00 19.09147 73.06750 2884 ft 168 kts 273°
2026-05-06 13:01 19.09139 73.05426 2919 ft 167 kts 273°
2026-05-06 13:01 19.09126 73.04108 2928 ft 168 kts 273°
2026-05-06 13:01 19.09108 73.02788 2832 ft 168 kts 273°
2026-05-06 13:01 19.09089 73.01423 2617 ft 187 kts 272°
2026-05-06 13:02 19.09066 72.99986 2350 ft 192 kts 272°
2026-05-06 13:02 19.09041 72.98524 2067 ft 191 kts 272°
2026-05-06 13:02 19.09017 72.97075 1793 ft 190 kts 272°
2026-05-06 13:02 19.08995 72.95643 1530 ft 188 kts 272°
2026-05-06 13:03 19.08974 72.94228 1278 ft 187 kts 272°
2026-05-06 13:03 19.08954 72.92793 1025 ft 186 kts 272°
2026-05-06 13:03 19.08933 72.91379 769 ft 178 kts 272°
2026-05-06 13:03 19.08914 72.90070 529 ft 169 kts 272°
2026-05-06 13:04 19.08896 72.88827 266 ft 159 kts 272°
2026-05-06 13:04 19.08879 72.87685 73 ft 145 kts 272°
2026-05-06 13:04 19.08868 72.86687 34 ft 114 kts 270°
2026-05-06 13:04 19.08860 72.86031 32 ft 64 kts 269°
2026-05-06 13:05 19.08860 72.85749 27 ft 24 kts 278°
2026-05-06 13:05 19.08884 72.85651 26 ft 8 kts 290°
2026-05-06 13:05 19.08906 72.85593 27 ft 8 kts 293°
2026-05-06 13:05 19.08929 72.85539 27 ft 7 kts 294°
2026-05-06 13:06 19.08960 72.85497 28 ft 6 kts 331°
2026-05-06 13:06 19.09001 72.85497 28 ft 5 kts 29°
2026-05-06 13:06 19.09022 72.85530 29 ft 5 kts 76°
2026-05-06 13:06 19.09025 72.85572 29 ft 6 kts 88°
2026-05-06 13:07 19.09026 72.85627 29 ft 10 kts 88°
2026-05-06 13:07 19.09028 72.85733 29 ft 17 kts 89°
2026-05-06 13:07 19.09031 72.85888 31 ft 22 kts 89°
2026-05-06 13:07 19.09032 72.86046 32 ft 20 kts 90°
2026-05-06 13:08 19.09034 72.86194 32 ft 19 kts 89°
2026-05-06 13:08 19.09035 72.86331 32 ft 17 kts 89°
2026-05-06 13:08 19.09037 72.86456 32 ft 16 kts 89°
2026-05-06 13:08 19.09040 72.86576 32 ft 15 kts 89°
2026-05-06 13:09 19.09041 72.86687 32 ft 14 kts 89°
2026-05-06 13:09 19.09061 72.86784 32 ft 12 kts 48°
2026-05-06 13:09 19.09122 72.86852 31 ft 12 kts 58°
2026-05-06 13:09 19.09134 72.86940 31 ft 11 kts 91°
2026-05-06 13:10 19.09134 72.87025 31 ft 10 kts 88°
2026-05-06 13:10 19.09164 72.87091 32 ft 8 kts 33°
2026-05-06 13:10 19.09216 72.87092 33 ft 5 kts 318°
2026-05-06 13:10 19.09233 72.87057 33 ft 4 kts 284°
2026-05-06 13:11 19.09239 72.87025 33 ft 3 kts 282°
2026-05-06 13:11 19.09248 72.87002 33 ft 2 kts 303°
2026-05-06 13:11 19.09257 72.86990 33 ft 1 kts 316°
2026-05-06 13:11 19.09261 72.86987 34 ft 1 kts 322°
2026-05-06 13:12 19.09300 72.86984 34 ft 6 kts 23°
2026-05-06 13:12 19.09329 72.87016 35 ft 4 kts 58°
2026-05-06 13:12 19.09342 72.87039 35 ft 0 kts 60°